Regional Weather Roundup
Issued by NWS

Home | Current Version | Previous Version | Graphics & Text | Print | Product List | Glossary On
Versions: 1 2 3 4 5 6 7 8 9 10 11 12 13 14 15 16 17 18 19 20 21 22 23 24 25 26 27 28 29 30 31 32 33 34 35 36 37 38 39 40 41 42 43 44 45 46 47 48 49 50
000
ASUS43 KMKX 281621
RWRWI

WISCONSIN REGIONAL WEATHER ROUNDUP
NATIONAL WEATHER SERVICE MILWAUKEE/SULLIVAN WI
1100 AM CDT THU APR 28 2016

NOTE: "FAIR" INDICATES FEW OR NO CLOUDS BELOW 12,000 FEET WITH NO
SIGNIFICANT WEATHER AND/OR OBSTRUCTIONS TO VISIBILITY.

WIZ001-002-006>008-014>016-023>028-281700-
NORTHWEST WISCONSIN

CITY           SKY/WX    TMP DP  RH WIND       PRES   REMARKS
SUPERIOR ARPT  MOSUNNY   41  33  74 NE21G29   30.09S
ASHLAND        CLOUDY    43  30  60 NE15      30.08R
HAYWARD        CLOUDY    49  19  30 NE9       30.02S
SIREN          CLOUDY    49  19  30 E7        30.02S
CUMBERLAND     CLOUDY    45  21  39 E8        30.01R
RICE LAKE      CLOUDY    45  20  37 E7        30.02S
CHETEK         CLOUDY    44  24  45 E3        30.01S
LADYSMITH      CLOUDY    47  19  32 E9        30.02R
EAU CLAIRE     LGT RAIN  38  34  85 NE9       30.00R WCI  31
MENOMONIE      CLOUDY    38  38  99 NE10G18   30.01R WCI  31
NEW RICHMOND   LGT RAIN  37  32  84 NE12      30.00S WCI  29
OSCEOLA        RAIN      37  34  89 NE6       30.04S WCI  32
$$

WIZ003>005-009-010-017-018-281700-
NORTH CENTRAL WISCONSIN

CITY           SKY/WX    TMP DP  RH WIND       PRES   REMARKS
MANITOWISH WTR CLOUDY    44  20  38 E12       30.03R
ARBOR VITAE    CLOUDY    43  18  37 E3        30.03R
WOODRUFF       CLOUDY    43  18  37 E3        30.03R
RHINELANDER    CLOUDY    44  17  33 E14       30.02R
EAGLE RIVER    CLOUDY    46  16  30 E10       30.02S
LAND O LAKES   CLOUDY    46  17  31 E8        30.04R
PHILLIPS       CLOUDY    45  24  43 E5        30.01R
TOMAHAWK       CLOUDY    44  20  39 NE5       30.02R
MEDFORD        CLOUDY    43  20  40 E8        29.99R
MERRILL        CLOUDY    45  20  37 E10       30.00R
$$

WIZ029-030-035-036-043>047-281700-
CENTRAL WISCONSIN

CITY           SKY/WX    TMP DP  RH WIND       PRES   REMARKS
WAUSAU         CLOUDY    47  22  37 E10       29.98R
MOSINEE        CLOUDY    43  23  45 E10G17    30.00R
MARSHFIELD     RAIN      38  33  82 E9        29.99R WCI  31
STEVENS POINT  LGT RAIN  38  32  80 E8        30.00R WCI  32
WAUPACA        DRIZZLE   42  34  73 E10       30.01R
WAUTOMA        NOT AVBL
WISC RAPIDS    LGT RAIN  38  35  89 E8        30.01R WCI  32
CAMP DOUGLAS   LGT RAIN  39  39 100 NE14      29.95R WCI  31
$$

WIZ011>013-019>022-031-037>040-048>050-281700-
NORTHEAST WISCONSIN

CITY           SKY/WX    TMP DP  RH WIND       PRES   REMARKS
ANTIGO         CLOUDY    42  22  44 E17G23    30.01R
SHAWANO        CLOUDY    46  26  46 E13       30.03R
OCONTO         CLOUDY    45  30  55 E8        30.04R
STURGEON BAY   CLOUDY    45  27  49 E10       30.07R
GREEN BAY      LGT RAIN  43  31  62 SE10      30.03R
MANITOWOC      LGT RAIN  40  32  73 VRB5      30.03R
APPLETON       FRZ DRZL  39  28  65 E13       30.00R WCI  32
CLINTONVILLE   DRIZZLE   43  28  56 E9G17     30.02R
OSHKOSH        LGT RAIN  40  33  76 E13G21    29.99R WCI  32
$$

WIZ032>034-041-042-053>061-281700-
SOUTHWEST WISCONSIN

CITY           SKY/WX    TMP DP  RH WIND       PRES   REMARKS
LA CROSSE      CLOUDY    45  32  60 NE10      29.93R
SPARTA         CLOUDY    42  34  73 E10G22    29.95R
VIROQUA        CLOUDY    42  35  78 E14G21    29.90R
BOSCOBEL       CLOUDY    47  38  71 E8        29.89R
PRAIRIE DU CHI CLOUDY    44  39  82 E7        29.88R HAZE
PLATTEVILLE    CLOUDY    44  41  91 E16       29.87R
$$

WIZ056-057-062-063-064-067-068-281700-
SOUTH CENTRAL WISCONSIN

CITY           SKY/WX    TMP DP  RH WIND       PRES   REMARKS
REEDSBURG      LGT RAIN  40  38  95 NE9       29.93R WCI  33
BARABOO/DELLS  LGT RAIN  40  37  89 E12       29.93R WCI  32
LONE ROCK      CLOUDY    43  38  82 E16       29.92R
MINERAL POINT  CLOUDY    45  41  87 E15       29.88R
MADISON        LGT RAIN  41  37  86 E14       29.92S
MIDDLETON      CLOUDY    42  39  88 E14G20    29.92S
WATERTOWN      CLOUDY    39  37  91 E14       29.94R WCI  31
MONROE         CLOUDY    41  37  87 E9        29.89R
JANESVILLE     CLOUDY    45  37  76 E14       29.90S
$$

WIZ051-052-058>065-066-070>072-281700-
SOUTHEAST WISCONSIN

CITY           SKY/WX    TMP DP  RH WIND       PRES   REMARKS
MILWAUKEE      CLOUDY    41  34  76 E20       29.95R
WAUKESHA       CLOUDY    39  32  75 E16G23    29.95R WCI  30
MILWAUKEE/TIMM CLOUDY    39  30  70 MISG      29.97R
RACINE         CLOUDY    41  34  76 E13       29.96R
BURLINGTON     CLOUDY    40  33  74 E15       29.93R WCI  32
KENOSHA        CLOUDY    42  34  73 E16       29.94R
FOND DU LAC    LGT RAIN  40  35  83 NE8       29.99R WCI  34
SHEBOYGAN      CLOUDY    42  30  62 E15       30.00R
WEST BEND      LGT RAIN  36  34  93 E12G20    29.97R WCI  27
JUNEAU         CLOUDY    38  34  83 E14       29.96R WCI  30
$$

LSZ147-162-281700-
LAKE SUPERIOR

STATION/POSITION TIME  TEMP    WIND        PRES    WAVE
                       AIR SEA DIR/SP/G            HT/PER
                 (UTC) (F)     (DEG/KT/KT) (MB)    (FT/S)
W MID LAKE BUOY  1550   37 36   50/ 17/ 21 1020.8R   3/ 5
DEVILS ISLAND    1600   37      50/ 24/ 26 1020.4R
SAXON HARBOR     1500   39      50/ 14/ 17 1017.6S
$$

LMZ867-665-643>646-281700-
LAKE MICHIGAN

STATION/POSITION TIME  TEMP    WIND        PRES    WAVE
                       AIR SEA DIR/SP/G            HT/PER
                 (UTC) (F)     (DEG/KT/KT) (MB)    (FT/S)
CHAMBERS ISLAND  1500   42      50/ 10/ 14 1017.9R
N MID LAKE BUOY  1550   39 39   80/ 14/ 16 1018.1R   3/ 4
NORTHPORT PIER   1500   40      70/ 13/ 18 1017.9R
ALGOMA LAKESHORE 1515           50/ 18/ 23   N/A
KEWAUNEE LAKESHO 1500   40      40/ 12/ 15 1015.6R
SHEBOYGAN LAKESH 1600   40      70/ 12/ 14 1016.8R
PORT WASHINGTON  1500   39      80/ 15/ 21 1015.9R
S MID LAKE BUOY  1550   39 40   90/ 17/ 21 1013.7R   4/ 5
KENOSHA   LAKESH 1600   40      70/ 17/ 20 1013.9R
$$

TC  - TEMPERATURE IN CELSIUS
VSB - VISIBILITY IN STATUTE MILES
WCI - WIND CHILL INDEX
HX  - HEAT INDEX





USA.gov is the U.S. government's official web portal to all federal, state and local government web resources and services.